[[{"header":{"parameterUnit":"m.s-1","parameterCategory":1,"la1":30.2991,"la2":30.254,"lo1":-89.0895,"lo2":-89.0444,"dy":0.0017,"dx":0.0017,"nx":28,"ny":28,"refTime":"2023-06-27T21:00:00:Z","depth":0,"parameterNumber":2,"parameterNumberName":"U-component_of_WINDS"},"data":[0,0,0,0,0,0,0,0,0,0,0,0,0,0,0,0,0,0,0,0,0,0,0,0,0,0,0,0,0,0,0,0,0,0,0,0,0,0,0,0,0,0,0,0,0,0,0,0,0,0,0,0,0,0,0,0,0,0,3.0202,3.02,0,2.9966,2.9964,2.9961,2.972,2.9717,2.9714,2.9711,2.9464,2.9461,2.9457,0,0,0,0,0,0,0,0,0,0,0,0,0,3.0441,3.0438,3.0202,3.0199,3.0196,2.9967,2.9964,2.996,2.9721,2.9717,2.9713,2.9709,2.9465,2.9461,2.9457,0,0,0,0,0,0,0,0,0,0,0,0,0,3.0284,3.0437,3.0203,3.0049,3.0033,2.9968,2.9964,2.996,2.9722,2.9717,2.9712,2.9707,2.9467,2.9461,2.9456,2.9521,0,0,2.944,2.9438,0,0,0,0,0,0,0,0,3.0294,3.0276,3.0075,3.006,3.0042,2.9868,2.9957,2.9812,2.9723,2.984,2.9711,2.9705,2.9602,2.9585,2.9551,2.9509,2.9499,2.9439,2.9436,2.9434,2.9432,0,0,0,0,0,0,0,3.0305,3.0285,3.0109,3.0072,3.0052,2.9991,2.9963,2.9928,2.9751,2.9829,2.9811,2.9787,2.9592,2.9557,2.9544,2.9495,2.944,2.9435,2.9432,2.9429,2.9495,2.95,0,0,0,0,0,0,3.034,3.0295,3.0116,3.0102,3.0158,2.9991,2.996,2.9929,2.9751,2.9719,2.9792,2.9777,2.9569,2.955,2.9534,2.9599,2.9434,2.9429,2.9426,2.949,2.9496,2.9502,0,0,0,0,0,0,3.0346,3.0326,3.0126,3.0193,3.0163,2.9992,2.9959,2.9927,2.9891,2.9722,2.9689,2.9789,2.9564,2.9542,2.9527,2.9587,2.9427,2.9422,2.9484,2.9492,2.9499,2.973,0,0,0,0,0,0,3.0353,3.0329,3.0353,3.0196,3.0161,3.0124,2.9962,2.9925,2.9884,2.9862,2.9711,2.9681,2.9559,2.9536,2.9522,2.9577,2.9418,2.9478,2.9488,2.9497,2.9716,2.9744,2.9768,0,0,0,0,0,3.0363,3.0426,3.0356,3.0335,3.0187,3.0128,3.0107,2.9967,2.989,2.9911,2.9803,2.9686,2.9583,2.9536,2.9518,2.9573,2.9474,2.9485,2.9496,2.9704,2.9738,2.9767,0,0,0,0,0,0,3.0592,3.0402,3.0322,3.0337,3.0251,3.0088,3.0111,3.0008,2.994,2.9922,2.9749,2.9717,2.9722,2.9645,2.9597,2.9627,2.9512,2.952,2.9677,2.9708,2.9734,2.9752,2.9413,0,0,0,0,0,3.0645,3.0615,3.0449,3.0478,3.0439,3.0284,3.0252,3.0152,3.0055,3.0016,2.9906,2.9815,2.9762,2.973,2.9672,2.9704,2.9667,2.9732,2.9759,2.9781,2.979,2.9801,2.9829,2.9538,2.9538,2.9538,0,0,3.0752,3.0645,3.0636,3.0522,3.0443,3.0414,3.0254,3.023,3.0206,3.0011,2.9991,2.9908,2.9795,2.9804,2.9802,2.974,2.9862,2.9795,2.9814,2.981,2.9816,2.9843,2.9868,2.9545,2.9544,2.9543,0,0,3.0934,3.085,3.0865,3.0791,3.0675,3.0571,3.0576,3.0428,3.0366,3.0344,3.0198,3.0167,3.0079,3.0005,2.9955,3.0113,3.0003,3.0098,3.0235,3.0248,3.0271,3.029,3.0347,3.0369,3.0108,3.0108,3.0109,0,3.1082,3.1034,3.0886,3.0871,3.0826,3.0651,3.0665,3.0599,3.047,3.0442,3.0374,3.0262,3.0173,3.0163,3.0202,3.0168,3.0167,3.0114,3.028,3.0298,3.0314,3.0366,3.0387,3.0121,3.0119,3.0118,3.0117,0,3.1222,3.1192,3.1217,3.11,3.1057,3.1057,3.0908,3.0882,3.0786,3.069,3.0669,3.0557,3.0474,3.0464,3.0369,3.0441,3.0406,3.0313,3.0193,3.0357,3.0403,3.0421,3.0138,3.0134,3.013,3.0127,0,0,3.1539,3.1342,3.1354,3.13,3.116,3.1133,3.1125,3.1046,3.1028,3.0945,3.0934,3.0865,3.0778,3.0723,3.0617,3.063,3.0762,3.0533,3.0528,3.058,3.0835,3.0907,3.0933,3.0689,3.0692,3.0695,3.0845,0,3.1696,3.1674,3.1542,3.1557,3.1527,3.1363,3.1356,3.1269,3.118,3.114,3.1039,3.0994,3.0882,3.0848,3.0853,3.0746,3.0811,3.0733,3.0676,3.0676,3.071,3.0956,3.1031,3.1179,3.0862,3.0865,3.0867,0,3.1876,3.1808,3.1823,3.1686,3.1668,3.1665,3.1582,3.1547,3.1446,3.1379,3.132,3.1203,3.1184,3.1075,3.1047,3.0997,3.0965,3.091,3.0912,3.0901,3.0781,3.0952,3.1222,3.1245,3.0894,3.0891,3.0889,0,3.2107,3.2019,3.2016,3.1974,3.1814,3.1816,3.1749,3.1643,3.1605,3.1532,3.1506,3.1432,3.1392,3.1337,3.1203,3.1135,3.119,3.1069,3.1134,3.1138,3.1152,3.1153,3.1422,3.1134,3.1133,3.1133,3.1132,0,3.2297,3.2312,3.2118,3.2116,3.2129,3.1976,3.1992,3.1908,3.1816,3.1795,3.1647,3.1629,3.1454,3.1416,3.1311,3.1305,3.1287,3.1232,3.1204,3.1245,3.1253,3.1222,3.1208,3.1139,3.1137,3.1136,3.1135,0,3.2556,3.2427,3.2413,3.2264,3.2227,3.2243,3.2114,3.2106,3.2008,3.1983,3.1968,3.1814,3.1763,3.1624,3.1536,3.1465,3.1488,3.1435,3.1523,3.1505,3.1579,3.1574,3.1836,3.1863,3.156,3.1563,3.1566,0,3.2685,3.2693,3.2547,3.2523,3.2464,3.2427,3.2388,3.2238,3.2204,3.2091,3.2096,3.2034,3.1975,3.19,3.1779,3.1712,3.1656,3.1753,3.1645,3.1687,3.1658,3.1659,3.1659,3.1777,3.1781,3.1784,3.1787,0,3.2929,3.2865,3.2816,3.2746,3.2705,3.2642,3.2569,3.2558,3.239,3.2359,3.2306,3.2261,3.2173,3.2112,3.2026,3.1954,3.1843,3.1822,3.1834,3.1876,3.1927,3.1901,3.1588,3.1817,3.1814,3.1811,3.181,3.1809,3.3126,3.3127,3.3025,3.2975,3.2907,3.2844,3.2829,3.2732,3.2685,3.2604,3.2518,3.2475,3.2373,3.2246,3.2183,3.2146,3.2088,3.2104,3.2108,3.2115,3.2134,3.1934,3.213,3.2129,3.2128,3.2127,3.2126,0,3.3362,3.3289,3.3246,3.3152,3.3114,3.3015,3.2931,3.2905,3.287,3.2786,3.2733,3.2673,3.2614,3.249,3.242,3.2414,3.2362,3.2401,3.2399,3.2385,3.219,3.2188,3.2445,3.2445,3.2445,3.2445,3.2445,3.2445,3.3481,3.3477,3.3402,3.3363,3.3288,3.3247,3.3208,3.3149,3.3081,3.3022,3.2974,3.2894,3.2794,3.2716,3.2658,3.2622,3.2603,3.266,3.2609,3.2429,3.2399,3.237,3.2366,3.2657,3.2657,3.2805,3.2807,3.2808]},{"header":{"parameterUnit":"m.s-1","parameterCategory":1,"la1":30.2991,"la2":30.254,"lo1":-89.0895,"lo2":-89.0444,"dy":0.0017,"dx":0.0017,"nx":28,"ny":28,"refTime":"2023-06-27T21:00:00:Z","depth":0,"parameterNumber":3,"parameterNumberName":"V-component_of_WINDS"},"data":[0,0,0,0,0,0,0,0,0,0,0,0,0,0,0,0,0,0,0,0,0,0,0,0,0,0,0,0,0,0,0,0,0,0,0,0,0,0,0,0,0,0,0,0,0,0,0,0,0,0,0,0,0,0,0,0,0,0,-0.2513,-0.2513,0,-0.2505,-0.2505,-0.2504,-0.2484,-0.2484,-0.2483,-0.2483,-0.2473,-0.2473,-0.2473,0,0,0,0,0,0,0,0,0,0,0,0,0,-0.2513,-0.2513,-0.2513,-0.2513,-0.2513,-0.2505,-0.2505,-0.2504,-0.2484,-0.2484,-0.2483,-0.2483,-0.2473,-0.2473,-0.2473,0,0,0,0,0,0,0,0,0,0,0,0,0,-0.2509,-0.2513,-0.2513,-0.2502,-0.2501,-0.2505,-0.2505,-0.2504,-0.2484,-0.2484,-0.2483,-0.2482,-0.2473,-0.2473,-0.2473,-0.2487,0,0,-0.2474,-0.2474,0,0,0,0,0,0,0,0,-0.251,-0.2509,-0.2504,-0.2503,-0.2502,-0.2495,-0.2501,-0.2498,-0.2484,-0.2491,-0.2483,-0.2482,-0.248,-0.248,-0.248,-0.2486,-0.2486,-0.2474,-0.2474,-0.2474,-0.2474,0,0,0,0,0,0,0,-0.251,-0.251,-0.251,-0.2504,-0.2502,-0.2497,-0.2496,-0.25,-0.2489,-0.249,-0.2488,-0.2488,-0.248,-0.248,-0.2479,-0.2486,-0.2474,-0.2474,-0.2474,-0.2474,-0.2505,-0.2506,0,0,0,0,0,0,-0.2512,-0.251,-0.251,-0.251,-0.2504,-0.2498,-0.2497,-0.2498,-0.2489,-0.2487,-0.2488,-0.2487,-0.248,-0.2479,-0.2479,-0.2496,-0.2474,-0.2474,-0.2474,-0.2504,-0.2505,-0.2506,0,0,0,0,0,0,-0.2512,-0.2512,-0.251,-0.2509,-0.2509,-0.2499,-0.25,-0.2498,-0.2498,-0.2488,-0.2486,-0.249,-0.2479,-0.2479,-0.2485,-0.2495,-0.2474,-0.2474,-0.2504,-0.2505,-0.2506,-0.2529,0,0,0,0,0,0,-0.2512,-0.2512,-0.2517,-0.251,-0.2509,-0.2517,-0.25,-0.2498,-0.2498,-0.2496,-0.2489,-0.2487,-0.2479,-0.2485,-0.2486,-0.2495,-0.2474,-0.2503,-0.2504,-0.2505,-0.2527,-0.253,-0.2533,0,0,0,0,0,-0.2512,-0.2523,-0.2517,-0.2517,-0.2515,-0.2518,-0.2517,-0.2507,-0.2499,-0.2504,-0.2498,-0.2487,-0.2494,-0.2486,-0.2486,-0.2496,-0.2502,-0.2504,-0.2505,-0.2526,-0.253,-0.2533,0,0,0,0,0,0,-0.2531,-0.2522,-0.2515,-0.2524,-0.2522,-0.2514,-0.252,-0.2512,-0.2511,-0.251,-0.2497,-0.2496,-0.2505,-0.2501,-0.2492,-0.251,-0.2496,-0.2498,-0.2512,-0.2516,-0.2519,-0.2519,-0.2474,0,0,0,0,0,-0.2536,-0.2539,-0.2531,-0.254,-0.2539,-0.253,-0.2531,-0.2524,-0.2521,-0.2519,-0.2514,-0.2511,-0.2513,-0.2514,-0.2515,-0.2527,-0.2525,-0.2533,-0.2536,-0.2539,-0.2541,-0.2548,-0.2552,-0.2511,-0.2511,-0.2511,0,0,-0.2546,-0.2542,-0.2545,-0.2544,-0.2541,-0.2545,-0.2529,-0.2533,-0.2536,-0.252,-0.2526,-0.2523,-0.2519,-0.2529,-0.2533,-0.2526,-0.2552,-0.2541,-0.2543,-0.2543,-0.255,-0.2554,-0.2558,-0.2513,-0.2512,-0.2512,0,0,-0.2568,-0.2565,-0.2573,-0.2571,-0.2568,-0.2562,-0.2564,-0.2558,-0.2555,-0.2562,-0.255,-0.2553,-0.2556,-0.2554,-0.2554,-0.2577,-0.2568,-0.2578,-0.2594,-0.2602,-0.2605,-0.2608,-0.2618,-0.2621,-0.258,-0.258,-0.258,0,-0.2581,-0.2587,-0.2577,-0.2583,-0.2584,-0.257,-0.2579,-0.2577,-0.2574,-0.2575,-0.2567,-0.2572,-0.2568,-0.2578,-0.2585,-0.2584,-0.2587,-0.2579,-0.2606,-0.2608,-0.2611,-0.262,-0.2623,-0.2581,-0.2581,-0.2581,-0.2581,0,-0.2604,-0.2609,-0.2615,-0.2614,-0.2615,-0.2622,-0.2614,-0.2617,-0.261,-0.2605,-0.2613,-0.2609,-0.2609,-0.2611,-0.2604,-0.2621,-0.2617,-0.2608,-0.2594,-0.2616,-0.2625,-0.2628,-0.2583,-0.2582,-0.2582,-0.2582,0,0,-0.2636,-0.2631,-0.2634,-0.2634,-0.263,-0.2634,-0.2641,-0.2642,-0.2645,-0.2644,-0.265,-0.2654,-0.2646,-0.2645,-0.2638,-0.2645,-0.2666,-0.2635,-0.2635,-0.2642,-0.2686,-0.2693,-0.2697,-0.266,-0.2661,-0.2661,-0.2687,0,-0.2657,-0.2669,-0.2661,-0.2675,-0.2679,-0.2668,-0.2674,-0.2673,-0.2669,-0.2673,-0.2668,-0.2672,-0.266,-0.266,-0.2667,-0.2662,-0.2675,-0.266,-0.2666,-0.2666,-0.2668,-0.2701,-0.2709,-0.2733,-0.269,-0.269,-0.269,0,-0.2682,-0.2684,-0.2698,-0.2696,-0.2697,-0.2703,-0.2705,-0.2708,-0.2707,-0.2704,-0.2705,-0.2697,-0.2705,-0.2692,-0.2702,-0.2693,-0.2695,-0.2693,-0.2694,-0.2694,-0.268,-0.2703,-0.274,-0.2744,-0.2695,-0.2695,-0.2695,0,-0.2705,-0.2711,-0.272,-0.2721,-0.2718,-0.2723,-0.2722,-0.272,-0.2722,-0.2724,-0.2725,-0.2728,-0.2729,-0.2731,-0.2724,-0.2715,-0.2737,-0.2722,-0.2735,-0.2735,-0.2739,-0.2739,-0.2778,-0.274,-0.274,-0.274,-0.274,0,-0.2729,-0.2738,-0.2731,-0.2737,-0.2747,-0.2739,-0.275,-0.2748,-0.2747,-0.2753,-0.2743,-0.2748,-0.2739,-0.2744,-0.2738,-0.2749,-0.2749,-0.2747,-0.2746,-0.2749,-0.2749,-0.275,-0.2748,-0.2741,-0.2741,-0.2741,-0.274,0,-0.2756,-0.2751,-0.2761,-0.2759,-0.2758,-0.2766,-0.2764,-0.277,-0.2766,-0.2774,-0.2775,-0.277,-0.2775,-0.2769,-0.2773,-0.277,-0.2785,-0.278,-0.2785,-0.2784,-0.2797,-0.2796,-0.2838,-0.2843,-0.2802,-0.2802,-0.2802,0,-0.2772,-0.2779,-0.2778,-0.2782,-0.2782,-0.2787,-0.279,-0.2783,-0.2786,-0.2787,-0.2793,-0.2798,-0.2801,-0.2811,-0.2807,-0.2811,-0.2807,-0.2822,-0.2808,-0.2811,-0.2809,-0.2809,-0.281,-0.2825,-0.2825,-0.2825,-0.2826,0,-0.2801,-0.2799,-0.2803,-0.2808,-0.2811,-0.2814,-0.2816,-0.282,-0.2813,-0.2817,-0.2823,-0.2826,-0.2832,-0.2837,-0.2841,-0.284,-0.2832,-0.2831,-0.2834,-0.2836,-0.2839,-0.2839,-0.2793,-0.2829,-0.2829,-0.2829,-0.2829,-0.2828,-0.2823,-0.283,-0.2831,-0.2837,-0.2838,-0.2841,-0.2847,-0.2845,-0.285,-0.2855,-0.285,-0.2858,-0.2859,-0.2863,-0.2863,-0.287,-0.2864,-0.2868,-0.2869,-0.287,-0.2873,-0.2839,-0.287,-0.287,-0.287,-0.287,-0.287,0,-0.2852,-0.2853,-0.2859,-0.2863,-0.2868,-0.2861,-0.2864,-0.2869,-0.2876,-0.2878,-0.2882,-0.289,-0.2896,-0.2894,-0.2899,-0.2905,-0.2901,-0.2906,-0.2906,-0.2906,-0.2877,-0.2875,-0.2909,-0.2909,-0.2909,-0.2909,-0.2909,-0.2909,-0.2868,-0.288,-0.2878,-0.2891,-0.2891,-0.2899,-0.2902,-0.2905,-0.2906,-0.2916,-0.2921,-0.292,-0.2921,-0.2926,-0.2932,-0.2931,-0.2934,-0.294,-0.2938,-0.2912,-0.2908,-0.2904,-0.2902,-0.2941,-0.2941,-0.2967,-0.2967,-0.2967]}]]